Regional Weather Roundup
Issued by NWS

Home | Current Version | Previous Version | Text Only | Print | Product List | Glossary Off
Versions: 1 2 3 4 5 6 7 8 9 10 11 12 13 14 15 16 17 18 19 20 21 22 23 24 25 26 27 28 29 30 31 32 33 34 35 36 37 38 39 40 41 42 43 44 45 46 47 48 49 50

000
ASUS43 KLSX 262359
RWRMO

WEATHER SUMMARY FOR MISSOURI
NATIONAL WEATHER SERVICE SPRINGFIELD MO
600 PM CST FRI DEC 26 2014

NOTE: "FAIR" INDICATES FEW OR NO CLOUDS BELOW 12,000 FEET WITH NO
       SIGNIFICANT WEATHER AND/OR OBSTRUCTIONS TO VISIBILITY.
       CURRENT SKY AND/OR WEATHER CONDITIONS ARE NOT AVAILABLE FOR
       CHILLICOTHE AND FARMINGTON.

MOZ001>031-035>038-043-044-053-054-270100-
...NORTHERN AND WESTERN MISSOURI...

CITY           SKY/WX    TMP DP  RH WIND       PRES   REMARKS
KANSAS CTY INT CLOUDY    39  34  82 NE8       29.93S
6HR MIN TEMP:  39; 6HR MAX TEMP:  48;

KANSAS C DTWN  CLOUDY    43  35  73 N5        29.94R
6HR MIN TEMP:  43; 6HR MAX TEMP:  55;

LEE`S SUMMIT   CLOUDY    46  38  73 NW6       29.93R
6HR MIN TEMP:  46; 6HR MAX TEMP:  55;

ST JOSEPH      CLOUDY    37  33  85 N6        29.97R
6HR MIN TEMP:  35; 6HR MAX TEMP:  39;

CHILLICOTHE      N/A     49  43  80 CALM      29.95R
6HR MIN TEMP:  49; 6HR MAX TEMP:  54;

KIRKSVILLE     CLOUDY    48  43  82 CALM      29.94R
6HR MIN TEMP:  48; 6HR MAX TEMP:  54;


$$
MOZ066>068-077>081-088>096-101>105-270100-
...SOUTHWEST MISSOURI...

CITY           SKY/WX    TMP DP  RH WIND       PRES   REMARKS
SPRINGFIELD    LGT RAIN  50  47  89 S15       29.95R FOG
6HR MIN TEMP:  50; 6HR MAX TEMP:  56; 6HR PCP: TRACE;

JOPLIN         LGT RAIN  52  51  97 S6        29.94R FOG
6HR MIN TEMP:  52; 6HR MAX TEMP:  60; 6HR PCP:  0.02;


$$
MOZ032>034-039>042-045>050-055>058-069>072-270100-
...CENTRAL MISSOURI...

CITY           SKY/WX    TMP DP  RH WIND       PRES   REMARKS
COLUMBIA       CLOUDY    54  45  71 S10       29.96R
6HR MIN TEMP:  54; 6HR MAX TEMP:  61;

JEFFERSON CITY CLOUDY    56  45  66 SE8       29.96S
6HR MIN TEMP:  56; 6HR MAX TEMP:  62;

ROLLA          CLOUDY    51  44  77 S14       29.98R
6HR MIN TEMP:  51; 6HR MAX TEMP:  56;

SEDALIA        CLOUDY    56  45  66 S10       29.94R
6HR MIN TEMP:  55; 6HR MAX TEMP:  59;

OSAGE BEACH    CLOUDY    54  45  71 S9G21     29.97R

$$
MOZ051-052-059>065-270100-
...EAST CENTRAL MISSOURI...

CITY           SKY/WX    TMP DP  RH WIND       PRES   REMARKS
ST LOUIS INTL  MOCLDY    56  44  64 S13       30.02R
6HR MIN TEMP:  56; 6HR MAX TEMP:  62;

SPIRIT OF STL  CLOUDY    56  44  64 S9        30.00R
6HR MIN TEMP:  56; 6HR MAX TEMP:  61;

ST CHARLES     MOCLDY    53  45  74 S13       30.00R
6HR MIN TEMP:  53; 6HR MAX TEMP:  60;


$$
MOZ072>076-082>087-097>100-106>115-270100-
...SOUTH CENTRAL AND SOUTHEAST MISSOURI...

CITY           SKY/WX    TMP DP  RH WIND       PRES   REMARKS
CAPE GIRARDEAU CLOUDY    50  43  77 S7        30.12R
6HR MIN TEMP:  50; 6HR MAX TEMP:  53;

POPLAR BLUFF   CLOUDY    51  43  74 S7        30.09S
6HR MIN TEMP:  50; 6HR MAX TEMP:  53;

WEST PLAINS    CLOUDY    49  38  65 SE9       30.04S
6HR MIN TEMP:  49; 6HR MAX TEMP:  52;


$$


USA.gov is the U.S. government's official web portal to all federal, state and local government web resources and services.